Вернуться в каталог

Platform-6

АктивенSSO
NORAD 98405·PAYLOAD
Loading…

Ближайшие Пролёты (ближайшие 24 часа)

TLE

СвежийSource: SatNOGS

Эпоха: Sep 13, 2026, 22:55 UTC

1 98405U 26203C   26256.95524716  .00003746  00000-0  27670-3 0  9994
2 98405  97.4191 331.9264 0057868 249.5757 109.9249 15.02490168  1225

Отслеживайте Platform-6 в реальном времени с AllMySat

Download on the App Store